N124TL KPGA-KGCN

Flight info

Callsign N124TL
Flight time 0h 52m
Altitude 6500
Route VFR WEST OVER THE GRAND CANYON
Aircraft BE58/L-VGD/C

Departure

Time 2026-04-25 15:40
Airport Page Municipal Airport (KPGA)

Arrival

Time 2026-04-25 16:32
Airport Grand Canyon National Park Airport (KGCN)
Time Latitude Longitude Altitude Speed Heading
2026-04-25 15:31 36.92738 -111.45180 4256 ft 0 kts 261°
2026-04-25 15:37 36.92780 -111.45217 4255 ft 18 kts 350°
2026-04-25 15:37 36.92846 -111.45306 4253 ft 13 kts 33°
2026-04-25 15:37 36.92876 -111.45156 4253 ft 27 kts 84°
2026-04-25 15:38 36.92852 -111.44981 4253 ft 19 kts 49°
2026-04-25 15:38 36.92983 -111.44996 4251 ft 23 kts 350°
2026-04-25 15:38 36.93174 -111.45039 4248 ft 31 kts 352°
2026-04-25 15:38 36.93259 -111.45039 4247 ft 0 kts 57°
2026-04-25 15:39 36.93268 -111.44985 4246 ft 12 kts 105°
2026-04-25 15:39 36.93240 -111.44952 4247 ft 2 kts 160°
2026-04-25 15:39 36.93000 -111.44894 4251 ft 76 kts 171°
2026-04-25 15:40 36.92353 -111.44759 4453 ft 105 kts 168°
2026-04-25 15:40 36.91878 -111.44631 4762 ft 108 kts 168°
2026-04-25 15:40 36.90904 -111.44315 5408 ft 109 kts 166°
2026-04-25 15:40 36.90184 -111.44061 5894 ft 108 kts 166°
2026-04-25 15:41 36.89464 -111.43826 6367 ft 107 kts 178°
2026-04-25 15:41 36.88796 -111.44116 6815 ft 104 kts 225°
2026-04-25 15:41 36.88529 -111.44918 7260 ft 103 kts 270°
2026-04-25 15:41 36.88648 -111.45858 7401 ft 127 kts 280°
2026-04-25 15:42 36.88848 -111.47037 7308 ft 148 kts 281°
2026-04-25 15:42 36.89072 -111.48365 7299 ft 160 kts 280°
2026-04-25 15:42 36.89310 -111.49779 7292 ft 170 kts 281°
2026-04-25 15:42 36.89934 -111.51043 7290 ft 179 kts 320°
2026-04-25 15:43 36.90905 -111.52033 7275 ft 181 kts 303°
2026-04-25 15:43 36.91160 -111.53517 7276 ft 178 kts 258°
2026-04-25 15:43 36.90485 -111.54761 7284 ft 178 kts 214°
2026-04-25 15:43 36.89316 -111.55234 7291 ft 179 kts 194°
2026-04-25 15:44 36.88142 -111.55776 7288 ft 179 kts 200°
2026-04-25 15:44 36.86993 -111.56393 7292 ft 178 kts 212°
2026-04-25 15:44 36.85948 -111.57230 7313 ft 177 kts 214°
2026-04-25 15:44 36.84924 -111.58069 7327 ft 177 kts 214°
2026-04-25 15:45 36.83886 -111.58918 7338 ft 177 kts 214°
2026-04-25 15:45 36.82839 -111.59772 7348 ft 178 kts 214°
2026-04-25 15:45 36.81815 -111.60608 7344 ft 176 kts 214°
2026-04-25 15:45 36.81130 -111.61169 7346 ft 174 kts 214°
2026-04-25 15:46 36.79784 -111.62274 7351 ft 173 kts 214°
2026-04-25 15:46 36.78771 -111.63106 7359 ft 173 kts 214°
2026-04-25 15:46 36.77762 -111.63936 7361 ft 173 kts 214°
2026-04-25 15:46 36.76757 -111.64762 7362 ft 173 kts 214°
2026-04-25 15:47 36.75750 -111.65588 7365 ft 172 kts 214°
2026-04-25 15:47 36.74741 -111.66414 7365 ft 172 kts 214°
2026-04-25 15:47 36.73730 -111.67239 7364 ft 172 kts 214°
2026-04-25 15:47 36.72729 -111.68056 7361 ft 173 kts 214°
2026-04-25 15:48 36.71715 -111.68878 7358 ft 172 kts 214°
2026-04-25 15:48 36.70703 -111.69694 7353 ft 171 kts 214°
2026-04-25 15:48 36.69707 -111.70498 7360 ft 171 kts 214°
2026-04-25 15:48 36.68704 -111.71307 7360 ft 170 kts 214°
2026-04-25 15:49 36.67702 -111.72113 7355 ft 170 kts 214°
2026-04-25 15:49 36.66704 -111.72920 7354 ft 170 kts 214°
2026-04-25 15:49 36.65704 -111.73731 7362 ft 171 kts 214°
2026-04-25 15:49 36.64715 -111.74535 7351 ft 171 kts 214°
2026-04-25 15:50 36.63717 -111.75347 7358 ft 170 kts 214°
2026-04-25 15:50 36.62709 -111.76170 7359 ft 171 kts 214°
2026-04-25 15:50 36.61714 -111.76984 7353 ft 171 kts 214°
2026-04-25 15:50 36.60719 -111.77796 7359 ft 171 kts 214°
2026-04-25 15:51 36.59723 -111.78607 7360 ft 170 kts 214°
2026-04-25 15:51 36.59053 -111.79149 7356 ft 170 kts 214°
2026-04-25 15:51 36.57733 -111.80220 7366 ft 170 kts 214°
2026-04-25 15:51 36.56739 -111.81024 7362 ft 170 kts 214°
2026-04-25 15:52 36.55743 -111.81828 7369 ft 170 kts 214°
2026-04-25 15:52 36.54739 -111.82635 7371 ft 170 kts 214°
2026-04-25 15:52 36.53738 -111.83437 7374 ft 169 kts 214°
2026-04-25 15:52 36.52690 -111.84132 7378 ft 170 kts 205°
2026-04-25 15:53 36.51569 -111.84612 7371 ft 172 kts 187°
2026-04-25 15:53 36.50385 -111.84464 7385 ft 173 kts 174°
2026-04-25 15:53 36.49191 -111.84196 7386 ft 173 kts 173°
2026-04-25 15:53 36.47984 -111.83989 7375 ft 171 kts 186°
2026-04-25 15:54 36.46845 -111.84383 7382 ft 170 kts 203°
2026-04-25 15:54 36.45750 -111.84945 7378 ft 170 kts 205°
2026-04-25 15:54 36.44654 -111.85513 7381 ft 170 kts 204°
2026-04-25 15:54 36.43559 -111.86080 7380 ft 170 kts 204°
2026-04-25 15:55 36.42469 -111.86641 7383 ft 170 kts 204°
2026-04-25 15:55 36.41369 -111.87206 7387 ft 170 kts 204°
2026-04-25 15:55 36.40260 -111.87772 7383 ft 170 kts 204°
2026-04-25 15:55 36.39164 -111.88324 7379 ft 170 kts 202°
2026-04-25 15:56 36.37976 -111.88392 7373 ft 174 kts 174°
2026-04-25 15:56 36.36788 -111.88065 7367 ft 174 kts 170°
2026-04-25 15:56 36.35611 -111.87706 7374 ft 173 kts 170°
2026-04-25 15:56 36.34438 -111.87348 7378 ft 173 kts 170°
2026-04-25 15:57 36.33268 -111.86993 7377 ft 173 kts 170°
2026-04-25 15:57 36.32090 -111.86633 7376 ft 172 kts 170°
2026-04-25 15:57 36.30911 -111.86275 7379 ft 172 kts 170°
2026-04-25 15:57 36.29738 -111.85895 7372 ft 174 kts 162°
2026-04-25 15:58 36.28711 -111.85065 7376 ft 177 kts 147°
2026-04-25 15:58 36.27679 -111.84229 7374 ft 176 kts 153°
2026-04-25 15:58 36.26628 -111.83472 7377 ft 176 kts 154°
2026-04-25 15:58 36.25533 -111.82809 7384 ft 174 kts 162°
2026-04-25 15:59 36.24391 -111.82268 7382 ft 175 kts 163°
2026-04-25 15:59 36.23245 -111.81729 7378 ft 175 kts 163°
2026-04-25 15:59 36.22093 -111.81193 7373 ft 175 kts 163°
2026-04-25 15:59 36.20947 -111.80670 7374 ft 173 kts 168°
2026-04-25 16:00 36.19784 -111.80809 7382 ft 168 kts 199°
2026-04-25 16:00 36.19418 -111.80962 7380 ft 167 kts 201°
2026-04-25 16:00 36.17476 -111.81305 7382 ft 168 kts 186°
2026-04-25 16:00 36.16302 -111.81381 7379 ft 168 kts 186°
2026-04-25 16:01 36.15131 -111.81461 7383 ft 168 kts 186°
2026-04-25 16:01 36.13959 -111.81541 7384 ft 168 kts 186°
2026-04-25 16:01 36.12801 -111.81688 7380 ft 165 kts 199°
2026-04-25 16:01 36.11814 -111.82394 7387 ft 164 kts 217°
2026-04-25 16:02 36.10933 -111.83298 7387 ft 165 kts 220°
2026-04-25 16:02 36.10047 -111.84228 7391 ft 165 kts 220°
2026-04-25 16:02 36.09170 -111.85146 7453 ft 162 kts 220°
2026-04-25 16:02 36.08316 -111.86039 7709 ft 160 kts 220°
2026-04-25 16:03 36.07466 -111.86925 7955 ft 159 kts 220°
2026-04-25 16:03 36.06615 -111.87814 8204 ft 157 kts 220°
2026-04-25 16:03 36.05778 -111.88687 8444 ft 156 kts 220°
2026-04-25 16:03 36.04957 -111.89541 8716 ft 152 kts 220°
2026-04-25 16:04 36.04189 -111.90334 9154 ft 136 kts 220°
2026-04-25 16:04 36.03691 -111.91246 9480 ft 130 kts 256°
2026-04-25 16:04 36.03899 -111.92319 9775 ft 135 kts 297°
2026-04-25 16:04 36.04480 -111.93202 10065 ft 129 kts 297°
2026-04-25 16:05 36.05014 -111.94062 10350 ft 124 kts 297°
2026-04-25 16:05 36.05523 -111.94873 10630 ft 115 kts 297°
2026-04-25 16:05 36.06375 -111.96723 10649 ft 135 kts 282°
2026-04-25 16:06 36.06712 -111.97858 10642 ft 144 kts 282°
2026-04-25 16:06 36.07061 -111.99052 10642 ft 150 kts 282°
2026-04-25 16:06 36.07417 -112.00278 10639 ft 155 kts 283°
2026-04-25 16:06 36.07782 -112.01572 10637 ft 159 kts 282°
2026-04-25 16:07 36.08148 -112.02873 10641 ft 162 kts 282°
2026-04-25 16:07 36.08393 -112.03753 10647 ft 164 kts 282°
2026-04-25 16:07 36.08893 -112.05559 10644 ft 168 kts 282°
2026-04-25 16:07 36.09269 -112.06943 10636 ft 170 kts 282°
2026-04-25 16:08 36.09650 -112.08349 10630 ft 171 kts 282°
2026-04-25 16:08 36.10027 -112.09743 10627 ft 172 kts 282°
2026-04-25 16:08 36.10408 -112.11162 10625 ft 173 kts 282°
2026-04-25 16:08 36.10838 -112.12573 10622 ft 176 kts 290°
2026-04-25 16:09 36.11396 -112.13915 10623 ft 177 kts 291°
2026-04-25 16:09 36.11977 -112.15276 10617 ft 177 kts 291°
2026-04-25 16:09 36.12558 -112.16630 10615 ft 177 kts 291°
2026-04-25 16:09 36.13133 -112.17980 10612 ft 177 kts 291°
2026-04-25 16:10 36.13705 -112.19328 10607 ft 177 kts 292°
2026-04-25 16:10 36.14277 -112.20686 10606 ft 177 kts 291°
2026-04-25 16:10 36.14853 -112.22050 10606 ft 178 kts 291°
2026-04-25 16:10 36.15428 -112.23391 10606 ft 177 kts 292°
2026-04-25 16:11 36.16006 -112.24747 10608 ft 177 kts 291°
2026-04-25 16:11 36.16587 -112.26104 10609 ft 177 kts 291°
2026-04-25 16:11 36.17169 -112.27471 10608 ft 177 kts 291°
2026-04-25 16:11 36.17745 -112.28830 10605 ft 177 kts 291°
2026-04-25 16:12 36.18310 -112.30176 10602 ft 177 kts 292°
2026-04-25 16:12 36.18883 -112.31535 10600 ft 177 kts 292°
2026-04-25 16:12 36.19296 -112.32946 10595 ft 175 kts 290°
2026-04-25 16:12 36.19849 -112.33721 10600 ft 185 kts 320°
2026-04-25 16:13 36.21550 -112.34300 10606 ft 196 kts 354°
2026-04-25 16:13 36.22916 -112.34302 10604 ft 198 kts 356°
2026-04-25 16:13 36.24321 -112.34291 10597 ft 198 kts 356°
2026-04-25 16:13 36.25695 -112.34279 10600 ft 198 kts 356°
2026-04-25 16:14 36.27086 -112.34266 10602 ft 198 kts 356°
2026-04-25 16:14 36.28464 -112.34252 10603 ft 199 kts 356°
2026-04-25 16:14 36.29861 -112.34238 10603 ft 199 kts 356°
2026-04-25 16:14 36.31234 -112.34390 10605 ft 195 kts 344°
2026-04-25 16:15 36.32571 -112.34723 10603 ft 195 kts 343°
2026-04-25 16:15 36.33918 -112.35075 10604 ft 195 kts 343°
2026-04-25 16:15 36.35249 -112.35426 10604 ft 196 kts 343°
2026-04-25 16:15 36.36515 -112.35978 10594 ft 187 kts 316°
2026-04-25 16:16 36.37125 -112.37273 10591 ft 172 kts 272°
2026-04-25 16:16 36.37155 -112.38751 10593 ft 172 kts 275°
2026-04-25 16:16 36.37437 -112.40206 10597 ft 174 kts 281°
2026-04-25 16:16 36.37760 -112.41670 10601 ft 175 kts 281°
2026-04-25 16:17 36.38087 -112.43131 10606 ft 175 kts 281°
2026-04-25 16:17 36.38298 -112.44601 10602 ft 170 kts 259°
2026-04-25 16:17 36.37696 -112.45792 10604 ft 166 kts 214°
2026-04-25 16:17 36.36589 -112.46198 10604 ft 169 kts 192°
2026-04-25 16:18 36.35416 -112.46381 10602 ft 169 kts 191°
2026-04-25 16:18 36.35028 -112.46436 10601 ft 169 kts 191°
2026-04-25 16:18 36.33067 -112.46717 10593 ft 169 kts 191°
2026-04-25 16:18 36.31892 -112.46887 10590 ft 169 kts 191°
2026-04-25 16:19 36.30917 -112.47563 10588 ft 165 kts 233°
2026-04-25 16:19 36.30499 -112.48904 10586 ft 167 kts 250°
2026-04-25 16:19 36.29767 -112.49965 10581 ft 165 kts 211°
2026-04-25 16:20 36.27618 -112.51075 10572 ft 167 kts 204°
2026-04-25 16:20 36.26520 -112.51603 10570 ft 168 kts 204°
2026-04-25 16:20 36.24747 -112.53359 10572 ft 167 kts 208°
2026-04-25 16:21 36.23580 -112.53402 10581 ft 176 kts 163°
2026-04-25 16:21 36.22541 -112.52571 10592 ft 179 kts 152°
2026-04-25 16:21 36.21547 -112.51602 10595 ft 183 kts 144°
2026-04-25 16:21 36.20629 -112.50483 10596 ft 185 kts 140°
2026-04-25 16:22 36.19755 -112.49306 10605 ft 186 kts 138°
2026-04-25 16:22 36.18892 -112.48102 10611 ft 186 kts 137°
2026-04-25 16:22 36.18010 -112.46864 10186 ft 200 kts 137°
2026-04-25 16:22 36.17084 -112.45551 9640 ft 204 kts 136°
2026-04-25 16:23 36.16163 -112.44240 9084 ft 200 kts 137°
2026-04-25 16:23 36.15257 -112.42955 8541 ft 196 kts 136°
2026-04-25 16:23 36.14365 -112.41691 8161 ft 186 kts 136°
2026-04-25 16:23 36.13540 -112.40518 8280 ft 179 kts 137°
2026-04-25 16:24 36.12724 -112.39368 8296 ft 179 kts 136°
2026-04-25 16:24 36.11895 -112.38195 8299 ft 180 kts 136°
2026-04-25 16:24 36.11063 -112.37019 8300 ft 180 kts 136°
2026-04-25 16:24 36.10245 -112.35860 8297 ft 180 kts 137°
2026-04-25 16:25 36.09414 -112.34688 8295 ft 180 kts 136°
2026-04-25 16:25 36.08866 -112.33912 8296 ft 180 kts 137°
2026-04-25 16:25 36.07756 -112.32343 8293 ft 180 kts 136°
2026-04-25 16:25 36.06933 -112.31181 8297 ft 180 kts 137°
2026-04-25 16:26 36.06097 -112.30006 8300 ft 180 kts 137°
2026-04-25 16:26 36.05274 -112.28844 8298 ft 180 kts 137°
2026-04-25 16:26 36.04439 -112.27664 8299 ft 180 kts 136°
2026-04-25 16:26 36.03619 -112.26503 8297 ft 180 kts 137°
2026-04-25 16:27 36.02786 -112.25329 8299 ft 180 kts 137°
2026-04-25 16:27 36.01967 -112.24173 8307 ft 180 kts 137°
2026-04-25 16:27 36.01138 -112.23005 8316 ft 180 kts 137°
2026-04-25 16:27 36.00301 -112.21830 8315 ft 180 kts 136°
2026-04-25 16:28 35.99470 -112.20657 8313 ft 180 kts 137°
2026-04-25 16:28 35.98648 -112.19498 8300 ft 179 kts 137°
2026-04-25 16:28 35.97822 -112.18366 8335 ft 173 kts 138°
2026-04-25 16:28 35.97010 -112.17269 8127 ft 179 kts 137°
2026-04-25 16:29 35.96153 -112.16116 7856 ft 182 kts 139°
2026-04-25 16:29 35.95314 -112.15052 7959 ft 167 kts 140°
2026-04-25 16:29 35.94514 -112.13985 7695 ft 174 kts 135°
2026-04-25 16:29 35.94310 -112.12554 7548 ft 181 kts 75°
2026-04-25 16:30 35.95052 -112.11332 7442 ft 168 kts 51°
2026-04-25 16:30 35.95786 -112.10334 7528 ft 141 kts 43°
2026-04-25 16:30 35.96540 -112.09771 7559 ft 116 kts
2026-04-25 16:30 35.97272 -112.10137 7462 ft 114 kts 313°
2026-04-25 16:31 35.97861 -112.10766 7531 ft 110 kts 307°
2026-04-25 16:31 35.98016 -112.11591 7448 ft 101 kts 244°
2026-04-25 16:31 35.97604 -112.12349 7192 ft 113 kts 224°
2026-04-25 16:31 35.96981 -112.12936 7000 ft 108 kts 213°
2026-04-25 16:32 35.96389 -112.13499 6758 ft 108 kts 219°
2026-04-25 16:32 35.95844 -112.14059 6616 ft 90 kts 218°
2026-04-25 16:32 35.95464 -112.14458 6590 ft 56 kts 220°
2026-04-25 16:32 35.95250 -112.14667 6580 ft 21 kts 186°
2026-04-25 16:33 35.95189 -112.14625 6580 ft 0 kts 129°
2026-04-25 16:33 35.95213 -112.14547 6582 ft 20 kts 41°
2026-04-25 16:33 35.95325 -112.14426 6588 ft 25 kts 39°
2026-04-25 16:33 35.95374 -112.14307 6592 ft 10 kts 74°
2026-04-25 16:34 35.95388 -112.14299 6592 ft 4 kts 193°
2026-04-25 16:34 35.95377 -112.14305 6592 ft 1 kts 216°